TimeCST,TemperatureF,Dew PointF,Humidity,Sea Level PressureIn,VisibilityMPH,Wind Direction,Wind SpeedMPH,Gust SpeedMPH,PrecipitationIn,Events,Conditions,WindDirDegrees,DateUTC
12:00 AM,-21,-29,49,29.70,15,NW,2.3,,,Snow,Snow,310,2013-01-02 06:00:00
12:00 AM,-20.2,-29.2,63,29.70,15.0,NNW,2.3,-,N/A,,Overcast,340,2013-01-02 06:00:00
1:00 AM,-22.0,-29.2,69,29.70,15.0,SSE,2.3,-,N/A,,Overcast,160,2013-01-02 07:00:00
2:00 AM,-20.2,-27.4,69,29.69,15.0,SSE,4.6,-,N/A,,Overcast,150,2013-01-02 08:00:00
3:00 AM,-22.0,-31.0,63,29.68,15.0,SE,6.9,-,N/A,,Partly Cloudy,140,2013-01-02 09:00:00
4:00 AM,-25.6,-34.6,63,29.68,15.0,SE,8.1,-,N/A,,Clear,130,2013-01-02 10:00:00
5:00 AM,-27.4,-34.6,69,29.67,15.0,SE,6.9,-,N/A,,Clear,130,2013-01-02 11:00:00
6:00 AM,-28,-36,46,29.66,15,SE,6.9,,,Snow,Snow,130,2013-01-02 12:00:00
6:00 AM,-27.4,-36.4,62,29.66,15.0,SE,6.9,-,N/A,,Clear,130,2013-01-02 12:00:00
7:00 AM,-29.2,-36.4,68,29.65,15.0,SE,8.1,-,N/A,,Clear,140,2013-01-02 13:00:00
8:00 AM,-27.4,-36.4,62,29.65,15.0,SE,9.2,-,N/A,,Clear,140,2013-01-02 14:00:00
9:00 AM,-29.2,-36.4,68,29.66,15.0,SE,8.1,-,N/A,,Clear,140,2013-01-02 15:00:00
10:00 AM,-29.2,-40.0,56,29.66,15.0,SE,9.2,-,N/A,,Clear,140,2013-01-02 16:00:00
11:00 AM,-29.2,-36.4,68,29.65,15.0,SE,9.2,-,N/A,,Clear,130,2013-01-02 17:00:00
12:00 PM,-31,-39,49,29.65,15,SE,9.2,,,Snow,Snow,140,2013-01-02 18:00:00
12:00 PM,-31.0,-38.2,68,29.65,15.0,SE,10.4,-,N/A,,Partly Cloudy,140,2013-01-02 18:00:00
1:00 PM,-31.0,-40.0,62,29.65,15.0,SE,9.2,-,N/A,,Partly Cloudy,140,2013-01-02 19:00:00
2:00 PM,-31.0,-40.0,62,29.66,15.0,SE,6.9,-,N/A,,Partly Cloudy,140,2013-01-02 20:00:00
3:00 PM,-31.0,-40.0,62,29.66,15.0,SE,6.9,-,N/A,,Partly Cloudy,140,2013-01-02 21:00:00
4:00 PM,-31.0,-40.0,62,29.68,15.0,SE,6.9,-,N/A,,Clear,140,2013-01-02 22:00:00
5:00 PM,-31.0,-38.2,68,29.69,15.0,ESE,5.8,-,N/A,,Clear,120,2013-01-02 23:00:00
6:00 PM,-33,-43,36,29.70,15,SE,5.8,,,Snow,Snow,130,2013-01-03 00:00:00
6:00 PM,-32.8,-43.6,56,29.70,15.0,SE,5.8,-,N/A,,Clear,130,2013-01-03 00:00:00
7:00 PM,-32.8,-40.0,68,29.73,15.0,SE,5.8,-,N/A,,Clear,130,2013-01-03 01:00:00
8:00 PM,-32.8,-40.0,68,29.74,15.0,ESE,5.8,-,N/A,,Clear,120,2013-01-03 02:00:00
9:00 PM,-36.4,-43.6,67,29.76,15.0,Calm,Calm,-,N/A,,Clear,0,2013-01-03 03:00:00